(282105) = 2000 UN95 = 2004 VP14

Discovered at Socorro on 2000-10-25 by LINEAR.

Orbit

Orbit type: Main Belt

Note: WebGL enabled browser required.

epoch2024-03-31.0
epoch JD2460400.5
perihelion date2020-05-16.22750
perihelion JD2458985.72750
argument of perihelion (°)143.96690
ascending node (°)262.47622
inclination (°)3.90400
eccentricity0.1405641
perihelion distance (AU)2.1301505
Tisserand w.r.t. Jupiter3.5
ΔV w.r.t. Earth (km/sec)9.2
semimajor axis (AU)2.4785450
mean anomaly (°)357.35121
mean daily motion (°/day)0.25258560
aphelion distance (AU)2.827
period (years)3.9
P-vector [x]0.68772110
P-vector [y]0.64912321
P-vector [z]0.32508269
Q-vector [x]-0.72283027
Q-vector [y]0.65388906
Q-vector [z]0.22348488
absolute magnitude16.88
phase slope0.15
uncertainty0
referenceMPEC 2024-E02
observations used387
oppositions14
arc length (days)8466
first opposition used2000
last opposition used2023
residual rms (arc-secs)0.74
perturbers coarse indicatorM-v
perturbers precise indicator003Ek
first observation date used2000-10-25.0
last observation date used2023-12-30.0
computer nameMPCLINUX
JD of orbit computation2456819.576823
perihelion JD uncertainty (days)1.3564E-04
argument of perihelion uncertainty (°)1.0036E-04
ascending node uncertainty (°)9.6948E-05
inclination uncertainty (°)7.9074E-06
eccentricity uncertainty 1.0139E-07
perihelion distance uncertainty (AU)2.4578E-07
Minimum Orbit Intersection Distances (in AU)
for orbit epoch: 2460400.5, reference: E2024-E02
Mercury1.81229
Venus1.40989
Earth1.14161
Mars0.62814
Jupiter2.53723
Saturn6.75394
Uranus15.7708
Neptune27.6749

Observations

391 total observations over interval: 2000 10 25.35595 – 2023 12 30.233458
These data are available for download (format description).

Date (UT) J2000 RA J2000 Dec Magn Location Ref
2000 10 25.35595 03 00 37.79 +22 01 07.4 19.7   704 – Lincoln Laboratory ETS, New Mexico MPS 21663
2000 10 25.36959 03 00 37.10 +22 01 03.8 19.6   704 – Lincoln Laboratory ETS, New Mexico MPS 21663
2000 10 25.40273 03 00 35.24 +22 00 54.0 19.7   704 – Lincoln Laboratory ETS, New Mexico MPS 21663
2000 11 03.21850 02 52 42.92 +21 14 38.2 19.2   704 – Lincoln Laboratory ETS, New Mexico MPS 21663
2000 11 03.23199 02 52 42.13 +21 14 33.2 19.5   704 – Lincoln Laboratory ETS, New Mexico MPS 21663
2000 11 03.24547 02 52 41.29 +21 14 28.4 19.8   704 – Lincoln Laboratory ETS, New Mexico MPS 21663
2000 11 03.25896 02 52 40.59 +21 14 24.9 19.4   704 – Lincoln Laboratory ETS, New Mexico MPS 21663
2000 11 05.32322 02 50 44.16 +21 02 07.3 19.5   704 – Lincoln Laboratory ETS, New Mexico MPS 22697
2000 11 05.33697 02 50 43.28 +21 02 01.0 19.1   704 – Lincoln Laboratory ETS, New Mexico MPS 22697
2000 11 05.35078 02 50 42.52 +21 01 57.3 19.6   704 – Lincoln Laboratory ETS, New Mexico MPS 22698
2000 11 05.36731 02 50 41.44 +21 01 49.3 18.9   704 – Lincoln Laboratory ETS, New Mexico MPS 22698
2000 11 18.26172 02 39 02.44 +19 38 43.8 19.1 R 699 – Lowell Observatory-LONEOS MPS 25240
2000 11 18.27748 02 39 01.47 +19 38 37.7   699 – Lowell Observatory-LONEOS MPS 25240
2000 11 18.29319 02 39 00.58 +19 38 31.4   699 – Lowell Observatory-LONEOS MPS 25240
2000 11 18.30888 02 38 59.97 +19 38 25.5   699 – Lowell Observatory-LONEOS MPS 25240
2000 11 20.22412 02 37 27.22 +19 25 52.4 19.3   704 – Lincoln Laboratory ETS, New Mexico MPS 22698
2000 11 20.23898 02 37 26.54 +19 25 46.5 19.6   704 – Lincoln Laboratory ETS, New Mexico MPS 22698
2000 11 20.25386 02 37 25.78 +19 25 40.9 19.5   704 – Lincoln Laboratory ETS, New Mexico MPS 22698
2000 11 20.26871 02 37 25.05 +19 25 35.7 19.7   704 – Lincoln Laboratory ETS, New Mexico MPS 22698
2000 11 20.28357 02 37 24.42 +19 25 29.1 19.7   704 – Lincoln Laboratory ETS, New Mexico MPS 22698
2004 11 04.42939 04 26 28.10 +24 45 13.2 19.7 V 691 – Steward Observatory, Kitt Peak-Spacewatch MPS 119356
2004 11 04.46364 04 26 26.59 +24 45 07.0 19.6 V 691 – Steward Observatory, Kitt Peak-Spacewatch MPS 119356
2004 11 04.49988 04 26 25.00 +24 45 00.2 19.4 V 691 – Steward Observatory, Kitt Peak-Spacewatch MPS 119356
2004 11 05.51139 04 25 41.79 +24 41 53.8 19.8   644 – Palomar Mountain/NEAT MPS 119356
2004 11 05.52148 04 25 41.34 +24 41 52.5 19.5   644 – Palomar Mountain/NEAT MPS 119356
2004 11 05.53205 04 25 40.85 +24 41 49.9 19.5   644 – Palomar Mountain/NEAT MPS 119356
2004 11 11.23191 04 21 07.03 +24 21 56.9 19.7 V 691 – Steward Observatory, Kitt Peak-Spacewatch MPS 119356
2004 11 11.26194 04 21 05.40 +24 21 50.2 19.6 V 691 – Steward Observatory, Kitt Peak-Spacewatch MPS 119356
2004 11 11.29613 04 21 03.51 +24 21 42.6 19.6 V 691 – Steward Observatory, Kitt Peak-Spacewatch MPS 119356
2004 12 02.27093 04 00 31.08 +22 41 19.3 18.9   644 – Palomar Mountain/NEAT MPS 120623
2004 12 02.29120 04 00 29.85 +22 41 12.9 18.7   644 – Palomar Mountain/NEAT MPS 120623
2004 12 02.31119 04 00 28.64 +22 41 06.0 18.9   644 – Palomar Mountain/NEAT MPS 120623
2004 12 02.31924 04 00 28.07 +22 41 01.3 17.8 R 703 – Catalina Sky Survey MPS 120623
2004 12 02.32745 04 00 27.63 +22 41 00.9 19.3 R 703 – Catalina Sky Survey MPS 120623
2004 12 02.33567 04 00 27.12 +22 40 57.6 18.7 R 703 – Catalina Sky Survey MPS 120623
2004 12 02.34390 04 00 26.58 +22 40 56.0 18.6 R 703 – Catalina Sky Survey MPS 120623
2004 12 10.22115 03 53 23.01 +21 59 12.7 19.7   704 – Lincoln Laboratory ETS, New Mexico MPS 121630
2004 12 10.23339 03 53 22.38 +21 59 07.8 19.9   704 – Lincoln Laboratory ETS, New Mexico MPS 121630
2004 12 10.24563 03 53 21.72 +21 59 04.0 19.6   704 – Lincoln Laboratory ETS, New Mexico MPS 121630
2004 12 19.30140 03 47 05.55 +21 15 04.0 19.0 R G96 – Mt. Lemmon Survey MPS 122633
2004 12 19.31059 03 47 05.22 +21 15 01.5 19.4 R G96 – Mt. Lemmon Survey MPS 122633
2004 12 19.31984 03 47 04.86 +21 14 59.0 19.3 R G96 – Mt. Lemmon Survey MPS 122633
2004 12 19.32910 03 47 04.53 +21 14 56.4 19.2 R G96 – Mt. Lemmon Survey MPS 122633
2008 11 24.31485 05 37 44.44 +24 17 10.4 19.6   704 – Lincoln Laboratory ETS, New Mexico MPS 266362
2008 11 24.32748 05 37 43.87 +24 17 08.3 20.1   704 – Lincoln Laboratory ETS, New Mexico MPS 266362
2008 11 24.34000 05 37 43.22 +24 17 04.2 20.6   704 – Lincoln Laboratory ETS, New Mexico MPS 266362
2008 11 24.35259 05 37 42.52 +24 17 03.9 20.1   704 – Lincoln Laboratory ETS, New Mexico MPS 266362
2008 11 24.36528 05 37 41.76 +24 17 02.6 20.3   704 – Lincoln Laboratory ETS, New Mexico MPS 266362
2008 12 02.28574 05 30 18.23 +23 54 40.3 20.1   704 – Lincoln Laboratory ETS, New Mexico MPS 267373
2008 12 02.29843 05 30 17.38 +23 54 38.1 20.0   704 – Lincoln Laboratory ETS, New Mexico MPS 267373
2008 12 02.31097 05 30 16.60 +23 54 36.4 20.1   704 – Lincoln Laboratory ETS, New Mexico MPS 267373
2008 12 22.23867 05 09 30.52 +22 47 15.0 19.0 V G96 – Mt. Lemmon Survey MPS 269180
2008 12 22.24402 05 09 30.16 +22 47 14.0 19.0 V G96 – Mt. Lemmon Survey MPS 269180
2008 12 22.24941 05 09 29.88 +22 47 12.7 19.1 V G96 – Mt. Lemmon Survey MPS 269180
2008 12 22.25477 05 09 29.52 +22 47 11.7 19.0 V G96 – Mt. Lemmon Survey MPS 269180
2008 12 29.21639 05 03 17.22 +22 23 26.0 20.3   704 – Lincoln Laboratory ETS, New Mexico MPS 270007
2008 12 29.22914 05 03 16.62 +22 23 23.4 20.5   704 – Lincoln Laboratory ETS, New Mexico MPS 270007
2008 12 29.24182 05 03 15.95 +22 23 21.3 20.3   704 – Lincoln Laboratory ETS, New Mexico MPS 270007
2008 12 29.25459 05 03 15.25 +22 23 18.8 20.4   704 – Lincoln Laboratory ETS, New Mexico MPS 270007
2010 03 15.38040 13 37 05.10 -15 42 37.8 21.6 V 691 – Steward Observatory, Kitt Peak-Spacewatch MPS 317813
2010 03 15.39659 13 37 04.50 -15 42 36.6 20.9 V 691 – Steward Observatory, Kitt Peak-Spacewatch MPS 317813
2010 03 15.40933 13 37 04.02 -15 42 32.9 20.9 V 691 – Steward Observatory, Kitt Peak-Spacewatch MPS 317813
2010 03 19.34361 13 34 33.26 -15 31 17.8 21.1 V 691 – Steward Observatory, Kitt Peak-Spacewatch MPS 317813
2010 03 19.36133 13 34 32.52 -15 31 14.9 20.9 V 691 – Steward Observatory, Kitt Peak-Spacewatch MPS 317813
2010 03 19.37903 13 34 31.83 -15 31 12.0 21.0 V 691 – Steward Observatory, Kitt Peak-Spacewatch MPS 317813
2010 04 05.24929 13 20 54.43 -14 16 36.1 20.6 V 691 – Steward Observatory, Kitt Peak-Spacewatch MPS 320580
2010 04 05.26452 13 20 53.60 -14 16 30.9 21.2 V 691 – Steward Observatory, Kitt Peak-Spacewatch MPS 320580
2010 04 05.27972 13 20 52.76 -14 16 26.1 20.6 V 691 – Steward Observatory, Kitt Peak-Spacewatch MPS 320580
2010 04 15.29508 13 11 49.48 -13 17 23.0 20.8 V G96 – Mt. Lemmon Survey MPS 322148
2010 04 15.30273 13 11 49.02 -13 17 20.1 20.5 V G96 – Mt. Lemmon Survey MPS 322149
2010 04 15.31042 13 11 48.62 -13 17 16.8 20.8 V G96 – Mt. Lemmon Survey MPS 322149
2010 04 15.31810 13 11 48.22 -13 17 14.5 20.6 V G96 – Mt. Lemmon Survey MPS 322149
2011 06 04.36830 20 20 33.10 -17 16 09.6 21.0 V G96 – Mt. Lemmon Survey MPS 384631
2011 06 04.37646 20 20 33.03 -17 16 09.1 21.4 V G96 – Mt. Lemmon Survey MPS 384631
2011 06 04.38458 20 20 32.96 -17 16 08.0 21.3 V G96 – Mt. Lemmon Survey MPS 384631
2011 06 04.39274 20 20 32.89 -17 16 07.5 21.3 V G96 – Mt. Lemmon Survey MPS 384631
2011 06 27.30216 20 11 01.96 -17 00 16.8 20.6 V G96 – Mt. Lemmon Survey MPS 385765
2011 06 27.31027 20 11 01.57 -17 00 17.0 20.6 V G96 – Mt. Lemmon Survey MPS 385765
2011 06 27.31845 20 11 01.24 -17 00 17.0 20.7 V G96 – Mt. Lemmon Survey MPS 385765
2011 06 27.32660 20 11 00.88 -17 00 17.6 20.5 V G96 – Mt. Lemmon Survey MPS 385765
2011 07 27.39229 19 43 14.324 -17 29 48.07 20.9 g F51 – Pan-STARRS 1, Haleakala MPS 388367
2011 07 27.40305 19 43 13.659 -17 29 48.91 20.9 g F51 – Pan-STARRS 1, Haleakala MPS 388367
2012 08 25.45826 05 28 49.63 +24 51 35.9 21.6 V 691 – Steward Observatory, Kitt Peak-Spacewatch MPS 430999
2012 08 25.47098 05 28 51.06 +24 51 36.4 21.6 V 691 – Steward Observatory, Kitt Peak-Spacewatch MPS 430999
2012 08 25.48368 05 28 52.43 +24 51 37.1 21.3 V 691 – Steward Observatory, Kitt Peak-Spacewatch MPS 430999
2012 12 18.46397 06 42 07.26 +21 42 37.5 19.0 R 926 – Tenagra II Observatory, Nogales MPS 448468
